SCP
0 0 0 0 0 0 0 0 0 0 0 0 0 0 1 3 4 5 6 7 8 9 9 6 4 3 2 1 1 1 1 1 2 2 1 1 0 0 0 0 0 0 0 0
0 0 0 0 0 0 0 0 0 0 0 0 0 0 1 2 3 5 6 7 8 8 8 6 4 3 2 1 1 1 1 1 1 1 1 0 0 0 0 0 0 0 0 0
0 0 0 0 0 0 0 0 0 0 0 0 0 0 1 2 3 5 7 7 7 6 5 5 4 3 2 1 1 0 0 0 0 0 0 0 0 0 0 0 0 0 0 0
0 0 0 0 0 0 0 0 0 0 0 0 0 0 1 2 4 5 6 6 5 5 4 3 2 2 1 1 0 0 0 0 0 0 0 0 0 0 0 0 0 0 0 0
0 0 0 0 0 0 0 0 0 0 0 0 0 0 1 2 4 5 5 4 4 4 3 2 1 1 0 0 0 0 0 0 0 0 0 0 0 0 0 0 0 0 0 0
0 0 0 0 0 0 0 0 0 0 0 0 0 0 0 2 4 4 4 3 3 3 2 2 1 0 0 0 0 0 0 0 0 0 0 0 0 0 0 0 0 0 0 0
0 0 0 0 0 0 0 0 0 0 0 0 0 0 0 1 3 4 3 2 2 1 1 1 0 0 0 0 0 0 0 0 0 0 0 0 0 0 0 0 0 0 0 0
0 0 0 0 0 0 0 0 0 0 0 0 0 0 1 1 3 3 2 2 1 1 1 0 0 0 0 0 0 0 0 0 0 0 0 0 0 0 0 0 0 0 0 0
0 0 0 0 0 0 0 0 0 0 0 0 0 0 1 1 2 2 2 1 1 0 0 0 0 0 0 0 0 0 0 0 0 0 0 0 0 0 0 0 0 0 0 0
0 0 0 0 0 0 0 0 0 0 0 0 0 0 1 1 2 2 2 1 0 0 0 0 0 0 0 0 0 0 0 0 0 0 0 0 0 0 0 0 0 0 0 0
0 0 0 0 0 0 0 0 0 0 0 0 0 0 1 1 2 2 2 1 0 0 0 0 0 0 0 0 0 0 0 0 0 0 0 0 0 0 0 0 0 0 0 0
0 0 0 0 0 0 0 0 0 0 0 0 0 0 0 1 2 2 1 0 0 0 0 0 0 0 0 0 0 0 0 0 0 0 0 0 0 0 0 0 0 0 0 0
0 0 0 0 0 0 0 0 0 0 0 0 0 0 1 1 1 1 1 0 0 0 0 0 0 0 0 0 0 0 0 0 0 0 0 0 0 0 0 0 0 0 0 0
0 0 0 0 0 0 0 0 0 0 0 0 0 0 1 1 1 1 0 0 0 0 0 0 0 0 0 0 0 0 0 0 0 0 0 0 0 0 0 0 0 0 0 0
0 0 0 0 0 0 0 0 0 0 0 0 0 1 1 2 2 1 0 0 0 0 0 0 0 0 0 0 0 0 0 0 0 0 0 0 0 0 0 0 0 0 0 0
0 0 0 0 0 0 0 0 0 0 0 1 1 1 1 2 2 1 0 0 0 0 0 0 0 0 0 0 0 0 0 0 0 0 0 0 0 0 0 0 0 0 0 0
0 0 0 0 0 0 0 0 0 0 0 1 1 1 2 2 2 0 0 0 0 0 0 0 0 0 0 0 0 0 0 0 0 0 0 0 0 0 0 0 0 0 0 0
0 0 0 0 0 0 0 0 0 0 0 1 1 1 1 2 1 0 0 0 0 0 0 0 0 0 0 0 0 0 0 0 0 0 0 0 0 0 0 0 0 0 0 0
0 0 0 0 0 0 0 0 0 0 0 1 1 1 1 1 0 0 0 0 0 0 0 0 0 0 0 0 0 0 0 0 0 0 0 0 0 0 0 0 0 0 0 0
0 0 0 0 0 0 0 0 0 0 0 1 1 1 0 0 0 0 0 0 0 0 0 0 0 0 0 0 0 0 0 0 0 0 0 0 0 0 0 0 0 0 0 0
0 0 0 0 0 0 0 0 0 0 0 0 0 0 0 0 0 0 0 0 0 0 0 0 0 0 0 0 0 0 0 0 0 0 0 0 0 0 0 0 0 0 0 0
0 0 0 0 0 0 0 0 0 0 0 0 0 0 0 0 0 0 0 0 0 0 0 0 0 0 0 0 0 0 0 0 0 0 0 0 0 0 0 0 0 0 0 0
0 0 0 0 0 0 0 0 0 0 0 0 0 0 0 0 0 0 0 0 0 0 0 0 0 0 0 0 0 0 0 0 0 0 0 0 0 0 0 0 0 0 0 0
0 0 0 0 0 0 0 0 0 0 0 0 0 0 0 0 0 0 0 0 0 0 0 0 0 0 0 0 0 0 0 0 0 0 0 0 0 0 0 0 0 0 0 0
0 0 0 0 0 0 0 0 0 0 0 0 0 0 0 0 0 0 0 0 0 0 0 0 0 0 0 0 0 0 0 0 0 0 0 0 0 0 0 0 0 0 0 0
0 0 0 0 0 0 0 0 0 0 0 0 0 0 0 0 0 0 0 0 0 0 0 0 0 0 0 -0 -0 0 0 0 0 0 0 0 0 0 0 0 0 0 0 0
Wind_Speed
3 3 5 8 7 7 5 7 10 13 10 5 6 6 8 12 20 19 17 17 17 14 12 10 9 9 9 9 9 8 9 7 6 5 4 4 5 4 5 5 7 7 7 7
1 6 11 8 8 7 7 9 12 13 8 1 2 3 5 11 16 19 20 19 19 18 14 12 10 8 9 9 9 9 9 9 8 5 4 4 4 4 3 4 5 6 7 7
9 10 8 9 9 10 11 9 11 11 7 2 5 4 4 6 13 15 16 18 18 19 17 14 12 10 10 10 9 10 9 10 9 8 5 5 4 4 4 5 5 6 7 7
8 10 9 9 9 10 12 14 11 9 5 4 5 4 3 6 10 13 15 15 16 16 16 15 14 13 12 11 11 11 10 10 9 8 8 8 6 4 4 3 4 5 7 7
8 7 9 11 14 11 13 15 11 8 5 3 0 5 6 7 10 11 13 14 14 15 16 16 15 15 13 12 11 9 9 9 8 8 8 8 6 4 3 4 5 6 5 6
11 9 8 10 12 12 11 8 2 3 4 3 6 6 7 10 17 19 16 16 16 16 16 16 15 14 12 10 9 8 8 7 7 7 7 7 7 5 5 5 5 4 3 4
11 12 11 9 10 12 5 4 1 4 4 7 6 4 8 10 17 22 22 19 17 17 17 16 15 12 10 9 8 7 7 6 5 6 6 6 6 5 5 3 4 4 3 3
9 11 11 9 11 11 7 10 10 8 7 7 3 3 6 5 16 17 18 18 18 17 16 16 14 12 10 9 8 7 7 6 6 6 6 6 5 4 3 3 2 2 2 3
10 12 11 9 8 9 6 7 10 9 6 3 3 1 4 9 17 19 20 19 19 18 17 17 14 11 10 9 7 7 7 6 6 6 6 5 4 3 2 2 2 2 2 3
6 7 9 8 5 4 9 8 6 7 7 5 4 6 10 15 18 18 18 17 17 16 16 15 12 10 9 8 7 7 7 6 5 5 4 3 2 2 1 1 3 3 4 4
2 4 7 3 3 6 3 2 5 5 6 8 6 9 11 23 23 21 17 16 17 16 15 12 10 10 9 8 7 6 6 5 5 4 3 3 1 1 2 3 4 4 3 4
4 4 2 6 6 5 6 7 6 5 6 6 5 10 6 19 16 16 17 17 16 15 13 13 12 11 9 7 6 6 5 5 4 3 2 0 1 2 3 4 4 4 4 4
4 5 4 10 9 7 4 3 1 3 4 4 3 8 5 11 13 14 16 17 16 15 14 13 12 10 9 7 6 6 5 4 3 2 1 2 3 3 4 4 4 4 4 4
4 2 6 7 7 4 6 6 4 2 1 3 3 1 3 9 12 12 13 14 14 15 14 13 10 9 8 7 7 5 4 3 2 3 2 3 3 4 4 4 4 4 4 4
6 2 3 6 7 7 8 8 4 2 3 5 4 6 8 11 12 12 13 14 15 14 14 13 10 8 7 7 5 4 3 3 3 3 4 4 4 4 3 4 4 5 5 5
6 3 6 5 4 6 10 9 5 4 4 6 7 5 10 16 13 12 13 15 15 12 12 12 11 9 7 6 4 3 3 4 4 4 5 4 3 3 4 5 5 5 5 5
3 3 5 5 6 7 8 7 6 5 5 8 9 10 18 21 22 21 19 17 17 15 13 11 9 8 6 4 3 2 3 4 4 4 4 3 3 4 5 5 5 5 5 4
6 2 2 4 3 8 9 4 4 6 6 8 8 17 23 20 14 10 13 17 17 15 12 10 8 6 4 3 1 2 4 4 3 3 3 4 5 6 6 6 6 5 4 3
4 6 4 3 5 8 6 3 3 2 4 5 15 20 18 21 17 10 10 14 15 13 10 8 7 6 4 3 1 3 4 3 3 3 5 6 7 7 7 7 7 5 2 2
5 3 4 3 4 8 7 3 5 3 4 3 18 25 25 19 12 8 11 15 14 10 8 7 6 5 4 1 1 2 3 4 5 6 7 7 7 7 7 7 6 2 2 4
6 5 0 4 7 10 6 4 2 4 8 5 13 18 12 6 10 15 15 13 11 9 8 8 7 5 2 2 1 2 4 5 6 6 6 7 7 6 5 4 4 5 6 6
2 3 3 2 5 10 4 1 6 7 5 13 13 13 18 22 21 16 15 12 10 9 8 7 5 3 3 3 2 3 5 6 5 5 6 7 6 5 6 8 9 8 7 6
3 4 3 6 8 8 6 5 3 9 15 16 17 18 22 21 19 16 12 10 9 8 6 4 4 3 4 4 3 3 5 5 4 6 6 6 6 7 8 9 8 6 5 4
4 3 5 8 12 11 6 5 9 15 19 19 21 20 20 19 16 14 11 8 7 6 4 3 3 3 3 3 2 3 2 3 5 5 6 5 6 7 7 6 5 5 4 4
6 4 5 8 7 3 6 13 18 21 21 20 18 17 18 19 16 13 9 7 6 4 3 3 2 1 1 1 1 0 2 5 5 6 6 6 6 5 5 4 3 3 1 2
4 4 3 3 4 2 7 12 19 20 19 19 19 16 13 15 13 11 8 6 5 4 2 1 1 1 1 1 1 2 4 5 5 5 6 5 5 4 3 3 2 2 2 5
Wind_Direction
221 144 223 231 220 213 243 274 283 283 288 310 263 197 152 129 118 121 121 118 116 113 113 110 105 99 86 69 66 63 61 49 56 60 60 60 56 45 47 50 43 37 30 22
326 243 230 222 236 242 252 268 277 286 289 235 87 92 127 133 132 133 132 129 127 125 121 117 109 95 84 81 75 69 64 58 57 64 68 79 85 63 56 41 35 29 28 20
209 237 229 221 239 248 256 243 249 256 286 28 100 38 58 85 113 119 123 128 131 132 131 127 118 106 96 88 81 78 71 68 65 68 69 63 53 41 28 25 23 19 24 24
231 241 243 243 240 225 252 249 237 243 247 252 145 166 211 128 120 129 133 134 133 132 129 126 120 110 102 97 90 84 77 73 67 67 71 70 67 55 28 22 22 15 20 23
230 224 223 237 245 236 238 254 241 232 226 262 153 155 223 148 146 153 146 139 134 132 129 125 120 114 108 102 95 89 83 76 71 70 71 71 63 53 35 28 21 12 8 17
234 242 226 231 252 244 242 243 264 59 80 269 248 186 224 191 178 161 152 143 138 134 128 121 117 114 110 104 98 94 88 79 73 73 71 75 72 62 47 27 14 2 354 357
251 259 256 248 265 278 252 175 357 323 331 254 256 222 237 208 169 158 152 148 143 139 135 130 126 123 121 116 112 107 101 90 81 78 73 74 77 71 57 31 19 10 353 339
218 254 249 242 228 237 242 169 176 201 225 264 319 243 290 164 141 144 146 145 145 143 140 136 134 134 132 128 122 115 105 95 83 79 75 69 68 63 45 31 23 356 319 295
197 233 241 240 235 206 219 203 189 165 183 193 239 137 35 107 137 150 153 152 150 147 142 138 138 138 132 125 120 117 108 94 84 86 88 72 65 61 38 7 340 307 297 302
191 234 259 255 258 265 195 183 118 137 168 221 227 204 187 175 169 165 161 156 149 144 142 141 140 133 121 116 112 107 106 105 103 99 94 92 73 50 4 328 314 305 301 305
106 200 291 322 219 250 270 195 146 145 163 175 217 246 206 185 178 169 161 153 147 145 144 139 130 120 113 109 110 110 107 106 104 107 105 93 41 328 318 306 298 298 296 304
8 102 291 273 257 233 230 225 181 180 227 182 186 253 245 181 170 158 151 149 145 140 134 126 119 114 111 111 109 103 100 95 101 114 111 114 298 312 317 310 306 305 300 300
351 74 17 340 338 3 14 348 302 169 156 166 193 276 351 142 142 149 147 145 140 131 126 120 115 115 115 111 104 97 90 83 73 65 38 323 311 315 316 309 307 305 300 303
41 135 171 210 239 280 305 311 347 58 171 192 189 211 74 133 140 140 136 133 130 128 125 119 114 111 108 102 99 94 80 63 39 16 353 322 307 305 303 304 306 298 297 300
40 1 281 248 254 268 275 277 281 281 195 182 190 163 167 158 145 134 127 126 125 125 123 121 119 115 107 97 89 80 53 12 352 334 317 304 302 305 306 310 304 299 303 308
13 3 355 324 320 307 282 274 265 244 204 179 147 157 153 132 123 131 134 131 127 130 131 127 121 114 108 103 91 61 9 333 319 304 295 300 305 307 299 292 295 302 307 307
311 23 2 289 308 328 272 251 247 232 206 174 183 175 152 147 153 153 148 143 143 143 138 130 123 120 117 110 97 47 321 309 305 291 289 282 271 284 284 288 295 292 292 295
204 207 227 261 321 247 248 282 252 226 223 188 168 159 160 149 135 132 140 140 137 132 128 126 126 122 122 120 87 333 312 298 280 270 274 267 266 272 276 283 282 276 275 287
202 186 204 220 240 266 275 326 343 252 263 179 148 142 129 117 95 81 108 120 122 124 126 129 133 133 128 113 36 346 327 297 284 284 278 272 268 270 275 276 273 268 271 328
40 125 177 214 224 246 242 270 290 152 245 184 147 145 145 134 128 141 126 118 115 113 118 124 124 115 110 128 355 348 319 305 292 282 280 283 286 285 282 276 277 296 37 40
350 360 308 219 232 256 247 263 32 172 228 147 148 147 143 115 122 131 126 118 117 117 118 116 111 116 162 221 264 302 302 290 283 293 307 317 317 311 304 325 20 54 62 49
281 298 289 264 236 253 277 215 178 192 122 105 103 103 104 106 114 121 122 123 120 113 108 109 116 166 230 245 245 279 289 285 303 329 342 340 344 3 37 62 63 61 56 40
236 222 248 248 250 277 285 253 185 133 115 112 113 116 118 119 123 124 124 121 112 108 114 125 158 211 252 257 239 265 285 306 341 357 351 350 16 40 62 74 71 60 48 35
264 204 236 264 271 274 262 147 118 112 109 112 118 123 124 122 123 120 116 112 111 115 129 147 172 215 262 276 240 228 299 19 31 15 360 15 50 62 63 72 75 74 55 32
247 229 252 262 289 10 99 123 119 112 113 117 120 122 121 121 121 121 122 123 122 126 141 150 158 187 255 240 188 110 65 57 40 21 20 40 69 85 74 69 73 92 97 68
235 215 248 288 310 97 110 115 115 111 114 116 115 111 114 120 122 124 124 124 125 130 132 120 91 43 3 70 54 52 72 72 58 40 39 53 72 78 72 62 23 353 331 343